Regional Weather Roundup
Issued by NWS

Home | Current Version | Previous Version | Text Only | Print | Product List | Glossary Off
Versions: 1 2 3 4 5 6 7 8 9 10 11 12 13 14 15 16 17 18 19 20 21 22 23 24 25 26 27 28 29 30 31 32 33 34 35 36 37 38 39 40 41 42 43 44 45 46 47 48 49 50

000
ASUS43 KOAX 072010
RWRNE

WEATHER ROUNDUP FOR NEBRASKA
NATIONAL WEATHER SERVICE OMAHA NE
300 PM CDT TUE JUL 07 2015

NOTES: SATELLITE DATA IS BEING USED TO AUGMENT CLOUD COVER ABOVE
       12000 FEET.
       "FAIR" INDICATES FEW OR NO CLOUDS BELOW 12,000 FEET WITH NO
       SIGNIFICANT WEATHER AND/OR OBSTRUCTIONS TO VISIBILITY.

  * THESE STATIONS DO NOT REPORT WEATHER SUCH AS RAIN...SNOW OR FOG.

NEZ001>004-019>022-054>056-072100-
NEBRASKA PANHANDLE

CITY           SKY/WX    TMP DP  RH WIND       PRES   REMARKS
SCOTTSBLUFF    CLOUDY    70  53  54 S18       30.12F
ALLIANCE       CLOUDY    67  54  63 S12       30.14F
CHADRON        CLOUDY    71  54  54 S14       30.10F
KIMBALL          N/A    N/A N/A N/A MISG        N/A
SIDNEY         CLOUDY    69  48  47 S15G21    30.17F
$$

NEZ057>060-069>072-079>082-072100-
SOUTHWEST NEBRASKA

CITY           SKY/WX    TMP DP  RH WIND       PRES   REMARKS
NORTH PLATTE   MOSUNNY   75  48  38 MISG      30.15F
IMPERIAL       MOSUNNY   78  45  30 SE12G23   30.15F
LEXINGTON      MOSUNNY   74  53  46 SE8       30.15F
MCCOOK         SUNNY     76  50  40 E12       30.14F
OGALLALA       PTSUNNY   73  50  43 SE9       30.15F
$$

NEZ005>010-023>029-035>040-094-072100-
NORTH CENTRAL NEBRASKA

CITY           SKY/WX    TMP DP  RH WIND       PRES   REMARKS
VALENTINE      PTSUNNY   74  53  48 SE10      30.13F
AINSWORTH      MOSUNNY   73  56  55 SE10      30.15F
BROKEN BOW     SUNNY     74  54  49 CALM      30.15F
O`NEILL        SUNNY     70  55  59 CALM      30.16F
ORD            SUNNY     75  50  41 NE7       30.14F
THEDFORD       CLOUDY    73  54  52 S9        30.16F
$$

NEZ041-046>049-061>064-073>077-083>087-072100-
SOUTH CENTRAL NEBRASKA

CITY           SKY/WX    TMP DP  RH WIND       PRES   REMARKS
GRAND ISLAND   MOSUNNY   71  54  54 NE9G16    30.15F
AURORA         MOSUNNY   71  54  54 NE14G20   30.15S
HASTINGS       MOSUNNY   72  55  55 NE13G21   30.15F
KEARNEY *      MOSUNNY   72  55  56 E13       30.15F
YORK           MOSUNNY   72  55  56 NE13      30.14F
$$

NEZ011>018-030>034-042>045-072100-
NORTHEAST NEBRASKA

CITY           SKY/WX    TMP DP  RH WIND       PRES   REMARKS
NORFOLK        SUNNY     72  49  44 N13G23    30.15F
BLAIR          MOSUNNY   69  51  51 NE10      30.12F
FREMONT        SUNNY     71  48  43 NE9       30.14F
TEKAMAH        MOSUNNY   73  51  46 NE12      30.13F
WAYNE          SUNNY     69  52  53 NE9       30.15F
$$

NEZ050>053-065>068-078-088>093-072100-
SOUTHEAST NEBRASKA

CITY           SKY/WX    TMP DP  RH WIND       PRES   REMARKS
LINCOLN        SUNNY     72  50  45 N13       30.13F
OMAHA EPPLEY   MOSUNNY   71  52  50 NE14      30.12F
FALLS CITY     MOSUNNY   72  53  51 N9        30.09F
PLATTSMOUTH    MOSUNNY   70  48  44 N5        30.12F
$$

NEZ044-045-051>053-067-072100-
OMAHA AREA

CITY           SKY/WX    TMP DP  RH WIND       PRES   REMARKS
OMAHA EPPLEY   MOSUNNY   71  52  50 NE14      30.12F
BLAIR          MOSUNNY   69  51  51 NE10      30.12F
FREMONT        SUNNY     71  48  43 NE9       30.14F
MILLARD        MOSUNNY  N/A N/A N/A NE6         N/A
OFFUTT AFB     MOSUNNY   71  52  50 N8        30.11F
PLATTSMOUTH    MOSUNNY   70  48  44 N5        30.12F
$$


USA.gov is the U.S. government's official web portal to all federal, state and local government web resources and services.